QZS-3 (MICHIBIKI-3)

Last updated on Jan. 21, 2021, 6:16 a.m. UTC

1 42917U 17048A   21020.79251910 -.00000341  00000-0  00000-0 0  9991
2 42917   0.0751 236.2330 0001590  84.5010 211.8513  1.00263414 12476
UTC
Height (km)
Latitude
Longitude
Inclination
Orbital Period
UTC large
Height (km)
Speed (km/s)
/
Latitude / Longitude
Inclination (degrees)
Orbital Period (minutes)
Azimuth
Elevation
Range (km)
Doppler Factor
iOS Compass Heading
iOS Angle

Next 30 passes for location: Hong Kong

Rise time Rise Azimuth (degrees) Set time Set Azimuth (degrees) Duration Max altitude (degrees)

No matching passes for this satellites